GW4289 Weather Reports


time (UTC)temp
C
wind
direction
speed
KPH
gust
KPH
rain 1hr
cm
rain 24hr
cm
rain mn
cm
humidity
%
barometer
mb
20260504151019 18 49 9.7 22.5 0.00 0.00 0.00 36 1014.4
20260504150518 18 48 4.8 12.9 0.00 0.00 0.00 36 1014.4
20260504141019 16 48 6.4 11.3 0.00 0.00 0.00 41 1014.3
20260504140518 16 48 3.2 9.7 0.00 0.00 0.00 42 1014.3
20260504130519 12 48 3.2 9.7 0.00 0.00 0.00 53 1014.9
20260504110518 9 48 3.2 6.4 0.00 0.00 0.00 61 1015.2
20260504100518 9 48 0.0 3.2 0.00 0.00 0.00 60 1015.2
20260504081537 10 48 1.6 6.4 0.00 0.00 0.00 53 1015.4
20260504081022 10 48 1.6 6.4 0.00 0.00 0.00 53 1015.5
20260504080517 10 48 1.6 6.4 0.00 0.00 0.00 53 1015.3
20260504050521 10 0 0.0 1.6 0.00 0.00 0.00 48 1016.0
20260504045518 10 48 0.0 1.6 0.00 0.00 0.00 48 1016.0
20260504045018 10 0 0.0 1.6 0.00 0.00 0.00 49 1016.0
20260504044539 10 48 0.0 1.6 0.00 0.00 0.00 48 1016.1
20260504044018 10 48 0.0 1.6 0.00 0.00 0.00 48 1016.1
20260504043518 10 48 0.0 1.6 0.00 0.00 0.00 49 1016.0
20260504043037 10 48 0.0 1.6 0.00 0.00 0.00 48 1016.1
20260504042518 10 0 0.0 1.6 0.00 0.00 0.00 47 1015.9
20260504042019 10 0 0.0 1.6 0.00 0.00 0.00 46 1015.8
20260504041535 10 48 0.0 1.6 0.00 0.00 0.00 45 1015.9
20260504041019 11 48 0.0 3.2 0.00 0.00 0.00 44 1015.9
20260504040519 11 48 0.0 3.2 0.00 0.00 0.00 44 1015.8
20260504040100 11 48 1.6 3.2 0.00 0.00 0.00 43 1015.9
20260504035520 11 48 0.0 4.8 0.00 0.00 0.00 43 1015.9
20260504035019 11 48 1.6 4.8 0.00 0.00 0.00 43 1015.9
20260504034538 11 48 1.6 3.2 0.00 0.00 0.00 43 1016.0
20260504034018 11 48 1.6 4.8 0.00 0.00 0.00 42 1016.0
20260504033518 11 48 1.6 4.8 0.00 0.00 0.00 42 1016.1
20260504033038 11 48 1.6 4.8 0.00 0.00 0.00 42 1016.0
20260504032522 11 48 3.2 6.4 0.00 0.00 0.00 41 1015.9
20260504032019 11 48 1.6 6.4 0.00 0.00 0.00 41 1015.9
20260504031537 11 48 1.6 4.8 0.00 0.00 0.00 41 1015.7
20260504031015 11 48 1.6 4.8 0.00 0.00 0.00 40 1015.8
20260504030520 11 48 1.6 3.2 0.00 0.00 0.00 40 1015.8
20260504030036 11 48 1.6 3.2 0.00 0.00 0.00 40 1015.8
20260504025523 11 48 0.0 4.8 0.00 0.00 0.00 40 1015.8
20260504025019 11 48 1.6 6.4 0.00 0.00 0.00 39 1015.7
20260504024542 11 49 1.6 6.4 0.00 0.00 0.00 39 1015.6
20260504024023 11 48 3.2 6.4 0.00 0.00 0.00 39 1015.6
20260504023520 11 48 3.2 6.4 0.00 0.00 0.00 39 1015.6
20260504023037 11 48 3.2 4.8 0.00 0.00 0.00 40 1015.6
20260504022518 11 49 1.6 3.2 0.00 0.00 0.00 42 1015.6
20260504022020 11 48 0.0 3.2 0.00 0.00 0.00 43 1015.6
20260504021537 11 0 0.0 0.0 0.00 0.00 0.00 45 1015.6
20260504021021 11 0 0.0 1.6 0.00 0.00 0.00 44 1015.5
20260504020518 11 0 0.0 1.6 0.00 0.00 0.00 43 1015.5
20260504020037 11 48 0.0 1.6 0.00 0.00 0.00 44 1015.4
20260504015515 11 0 0.0 1.6 0.00 0.00 0.00 45 1015.4
20260504015018 10 0 0.0 0.0 0.00 0.00 0.00 47 1015.4
20260504014542 10 0 0.0 0.0 0.00 0.00 0.00 48 1015.3
20260504014019 10 0 0.0 0.0 0.00 0.00 0.00 47 1015.3
20260504013519 10 0 0.0 0.0 0.00 0.00 0.00 49 1015.2
20260504013036 11 0 0.0 1.6 0.00 0.00 0.00 48 1015.2
20260504012519 11 0 0.0 1.6 0.00 0.00 0.00 47 1015.2
20260504012019 11 48 0.0 1.6 0.00 0.00 0.00 47 1015.1
20260504011534 11 0 0.0 0.0 0.00 0.00 0.00 45 1015.1
20260504011018 11 0 0.0 0.0 0.00 0.00 0.00 43 1015.1
20260504010518 12 0 0.0 0.0 0.00 0.00 0.00 42 1015.1
20260504010037 12 0 0.0 0.0 0.00 0.00 0.00 40 1015.1
20260504005520 12 0 0.0 0.0 0.00 0.00 0.00 39 1015.1
20260504005019 13 0 0.0 0.0 0.00 0.00 0.00 36 1015.1
20260504004544 13 0 0.0 1.6 0.00 0.00 0.00 36 1015.0
20260504004019 14 0 0.0 1.6 0.00 0.00 0.00 34 1014.9
20260504003519 14 0 0.0 1.6 0.00 0.00 0.00 33 1015.0
20260504003036 15 48 0.0 1.6 0.00 0.00 0.00 32 1014.8
20260504002518 15 0 0.0 1.6 0.00 0.00 0.00 31 1014.8
20260504002015 15 0 0.0 1.6 0.00 0.00 0.00 31 1014.8
20260504001539 15 0 0.0 1.6 0.00 0.00 0.00 30 1014.9
20260504001018 15 0 0.0 1.6 0.00 0.00 0.00 30 1014.8
20260504000519 15 0 0.0 3.2 0.00 0.00 0.00 29 1014.7
20260504000037 16 0 0.0 4.8 0.00 0.00 0.00 29 1014.7
20260503235519 16 48 0.0 4.8 0.00 0.00 0.00 28 1014.6
20260503235021 16 48 0.0 6.4 0.00 0.00 0.00 28 1014.6
20260503234536 16 48 0.0 6.4 0.00 0.00 0.00 28 1014.5
20260503234017 16 48 1.6 11.3 0.00 0.00 0.00 28 1014.5
20260503233516 16 48 3.2 11.3 0.00 0.00 0.00 28 1014.5
20260503233040 16 48 3.2 9.7 0.00 0.00 0.00 27 1014.5
20260503232517 16 48 3.2 8.0 0.00 0.00 0.00 27 1014.4
20260503232017 16 48 3.2 9.7 0.00 0.00 0.00 27 1014.4
20260503231538 17 48 3.2 9.7 0.00 0.00 0.00 26 1014.4
20260503231017 17 48 3.2 8.0 0.00 0.00 0.00 26 1014.2
20260503230520 17 48 1.6 11.3 0.00 0.00 0.00 26 1014.2
20260503230036 17 48 3.2 16.1 0.00 0.00 0.00 26 1014.2
20260503225516 17 48 6.4 16.1 0.00 0.00 0.00 26 1014.3
20260503225019 17 48 3.2 12.9 0.00 0.00 0.00 26 1014.4
20260503224537 17 48 4.8 12.9 0.00 0.00 0.00 26 1014.3
20260503224018 17 48 3.2 12.9 0.00 0.00 0.00 26 1014.4
20260503223516 17 48 3.2 8.0 0.00 0.00 0.00 25 1014.4
20260503223036 17 48 3.2 11.3 0.00 0.00 0.00 25 1014.3
20260503222517 17 48 3.2 11.3 0.00 0.00 0.00 26 1014.4
20260503222020 17 48 3.2 11.3 0.00 0.00 0.00 25 1014.3
20260503221534 17 48 4.8 11.3 0.00 0.00 0.00 26 1014.4
20260503221016 17 48 1.6 9.7 0.00 0.00 0.00 26 1014.4
20260503220519 17 48 4.8 9.7 0.00 0.00 0.00 26 1014.4
20260503220032 17 48 3.2 20.9 0.00 0.00 0.00 26 1014.4
20260503215516 17 48 4.8 20.9 0.00 0.00 0.00 26 1014.5
20260503215016 17 48 9.7 20.9 0.00 0.00 0.00 26 1014.4
20260503214538 17 51 4.8 17.7 0.00 0.00 0.00 25 1014.4
20260503214017 17 51 6.4 12.9 0.00 0.00 0.00 26 1014.4
20260503213519 17 51 4.8 14.5 0.00 0.00 0.00 25 1014.5
20260503213038 17 51 6.4 14.5 0.00 0.00 0.00 25 1014.4
20260503212517 17 51 4.8 12.9 0.00 0.00 0.00 26 1014.6
20260503212021 16 51 3.2 17.7 0.00 0.00 0.00 26 1014.5
20260503211537 16 51 6.4 22.5 0.00 0.00 0.00 26 1014.5
20260503211025 16 51 8.0 22.5 0.00 0.00 0.00 26 1014.6
20260503210516 17 53 4.8 12.9 0.00 0.00 0.00 26 1014.5
20260503210033 17 53 4.8 14.5 0.00 0.00 0.00 26 1014.5
20260503205519 16 53 6.4 17.7 0.00 0.00 0.00 26 1014.4
20260503205019 16 53 8.0 17.7 0.00 0.00 0.00 26 1014.7
20260503204534 16 53 8.0 17.7 0.00 0.00 0.00 26 1014.9
20260503204021 16 53 8.0 17.7 0.00 0.00 0.00 26 1014.8
20260503203523 16 53 8.0 19.3 0.00 0.00 0.00 27 1014.7
20260503203034 16 53 4.8 19.3 0.00 0.00 0.00 27 1014.7
20260503202519 16 53 8.0 19.3 0.00 0.00 0.00 28 1014.7
20260503202019 16 53 4.8 17.7 0.00 0.00 0.00 28 1014.7
20260503201538 16 53 6.4 17.7 0.00 0.00 0.00 27 1015.0
20260503201018 16 53 4.8 16.1 0.00 0.00 0.00 27 1015.1
20260503200518 16 53 6.4 22.5 0.00 0.00 0.00 27 1015.1
20260503200038 16 53 8.0 22.5 0.00 0.00 0.00 28 1015.1
20260503195519 16 53 3.2 16.1 0.00 0.00 0.00 29 1015.1
20260503195016 16 53 6.4 24.1 0.00 0.00 0.00 28 1015.2
20260503194538 16 53 3.2 24.1 0.00 0.00 0.00 29 1015.4
20260503194019 15 53 8.0 19.3 0.00 0.00 0.00 28 1015.4
20260503193523 15 53 6.4 20.9 0.00 0.00 0.00 30 1015.4
20260503193042 15 53 9.7 20.9 0.00 0.00 0.00 30 1015.6
20260503192520 15 52 11.3 19.3 0.00 0.00 0.00 30 1015.7
20260503192022 15 51 6.4 19.3 0.00 0.00 0.00 29 1015.7
20260503191535 15 51 4.8 22.5 0.00 0.00 0.00 30 1015.8
20260503191023 15 51 8.0 22.5 0.00 0.00 0.00 30 1015.9
20260503190519 15 49 6.4 14.5 0.00 0.00 0.00 30 1015.8
20260503190043 15 49 6.4 17.7 0.00 0.00 0.00 30 1015.9
20260503185518 15 49 4.8 17.7 0.00 0.00 0.00 31 1015.9
20260503185019 15 49 8.0 17.7 0.00 0.00 0.00 31 1016.0
20260503184537 15 49 6.4 20.9 0.00 0.00 0.00 31 1015.9
20260503184021 15 49 8.0 20.9 0.00 0.00 0.00 31 1016.0
20260503183517 15 49 8.0 19.3 0.00 0.00 0.00 31 1016.3
20260503183052 15 51 6.4 19.3 0.00 0.00 0.00 32 1016.2
20260503182518 14 51 4.8 19.3 0.00 0.00 0.00 33 1016.2
20260503182020 15 51 11.3 24.1 0.00 0.00 0.00 32 1016.4
20260503181540 14 51 6.4 24.1 0.00 0.00 0.00 32 1016.3
20260503181018 14 53 8.0 17.7 0.00 0.00 0.00 32 1016.4
20260503180518 14 52 8.0 22.5 0.00 0.00 0.00 33 1016.3
20260503180037 13 52 8.0 22.5 0.00 0.00 0.00 33 1016.3
20260503175517 14 52 11.3 22.5 0.00 0.00 0.00 31 1016.4
20260503175018 13 52 4.8 19.3 0.00 0.00 0.00 33 1016.6
20260503174537 13 54 4.8 17.7 0.00 0.00 0.00 34 1016.5
20260503174017 13 53 4.8 17.7 0.00 0.00 0.00 34 1016.6
20260503173517 13 54 3.2 17.7 0.00 0.00 0.00 34 1016.6
20260503173032 13 54 4.8 17.7 0.00 0.00 0.00 34 1016.7
20260503172516 13 53 6.4 16.1 0.00 0.00 0.00 34 1016.7
20260503172017 13 53 6.4 12.9 0.00 0.00 0.00 33 1016.7
20260503171536 13 53 4.8 16.1 0.00 0.00 0.00 34 1016.9
20260503171017 13 53 4.8 17.7 0.00 0.00 0.00 34 1017.0
20260503170515 13 53 6.4 17.7 0.00 0.00 0.00 34 1017.0